DW6650 Weather Reports


Display with metric or nautical units.
time (UTC)temp
F
wind
direction
speed
MPH
gust
MPH
rain 1hr
in
rain 24hr
in
rain mn
in
humidity
%
barometer
mb
20260505050517 61 90 0.0 0.0 0.00 0.00 0.00 67 1016.3
20260505041537 61 90 0.0 0.0 0.00 0.00 0.00 67 1016.3
20260505041017 62 90 0.0 0.0 0.00 0.00 0.00 65 1016.3
20260505040517 62 90 0.0 0.0 0.00 0.00 0.00 64 1016.4
20260505040017 62 90 0.0 0.0 0.00 0.00 0.00 64 1016.3
20260505035558 62 90 0.0 0.0 0.00 0.00 0.00 64 1016.5
20260505035018 63 90 0.0 0.0 0.00 0.00 0.00 64 1016.5
20260505034517 63 90 0.0 0.0 0.00 0.00 0.00 61 1016.6
20260505034017 63 90 0.0 0.0 0.00 0.00 0.00 62 1016.6
20260505033517 63 90 0.0 0.0 0.00 0.00 0.00 62 1016.7
20260505033017 63 90 0.0 0.0 0.00 0.00 0.00 62 1016.6
20260505032538 63 90 0.0 0.0 0.00 0.00 0.00 63 1016.7
20260505032118 62 90 0.0 0.0 0.00 0.00 0.00 62 1016.7
20260505031517 62 90 0.0 0.0 0.00 0.00 0.00 62 1016.7
20260505031038 62 90 0.0 0.0 0.00 0.00 0.00 63 1016.7
20260505030538 62 90 0.0 0.0 0.00 0.00 0.00 62 1016.7
20260505030017 62 90 0.0 0.0 0.00 0.00 0.00 63 1016.7
20260505025537 62 90 0.0 0.0 0.00 0.00 0.00 61 1016.7
20260505025017 62 90 0.0 0.0 0.00 0.00 0.00 62 1016.6
20260505024517 62 90 0.0 0.0 0.00 0.00 0.00 64 1016.6
20260505024017 63 90 0.0 1.0 0.00 0.00 0.00 64 1016.5
20260505023537 63 90 0.0 1.0 0.00 0.00 0.00 64 1016.6
20260505023057 63 90 0.0 1.0 0.00 0.00 0.00 65 1016.6
20260505022517 63 90 0.0 1.0 0.00 0.00 0.00 62 1016.5
20260505022038 63 90 0.0 2.0 0.00 0.00 0.00 63 1016.6
20260505021517 63 90 0.0 0.0 0.00 0.00 0.00 63 1016.5
20260505021017 63 90 0.0 0.0 0.00 0.00 0.00 62 1016.4
20260505020517 64 90 0.0 0.0 0.00 0.00 0.00 62 1016.4
20260505020037 64 90 0.0 0.0 0.00 0.00 0.00 60 1016.4
20260505015517 64 90 0.0 0.0 0.00 0.00 0.00 57 1016.4
20260505015017 65 90 0.0 0.0 0.00 0.00 0.00 57 1016.3
20260505014517 65 90 0.0 0.0 0.00 0.00 0.00 59 1016.1
20260505014017 65 90 0.0 0.0 0.00 0.00 0.00 56 1016.1
20260505013517 66 90 0.0 0.0 0.00 0.00 0.00 54 1016.0
20260505013017 66 90 0.0 0.0 0.00 0.00 0.00 55 1015.8
20260505012517 66 90 0.0 0.0 0.00 0.00 0.00 53 1015.8
20260505012037 66 90 0.0 0.0 0.00 0.00 0.00 53 1015.7
20260505011537 67 90 0.0 0.0 0.00 0.00 0.00 52 1015.7
20260505011017 67 90 0.0 0.0 0.00 0.00 0.00 51 1015.6
20260505010517 68 90 0.0 0.0 0.00 0.00 0.00 50 1015.6
20260505010057 68 90 0.0 0.0 0.00 0.00 0.00 48 1015.6
20260505005537 68 90 0.0 1.0 0.00 0.00 0.00 49 1015.4
20260505005017 69 90 0.0 0.0 0.00 0.00 0.00 47 1015.4
20260505004517 70 90 0.0 0.0 0.00 0.00 0.00 47 1015.4
20260505004017 70 90 0.0 0.0 0.00 0.00 0.00 46 1015.3
20260505003517 71 90 0.0 0.0 0.00 0.00 0.00 44 1015.3
20260505003017 71 90 0.0 0.0 0.00 0.00 0.00 44 1015.3
20260505002517 72 90 0.0 0.0 0.00 0.00 0.00 43 1015.2
20260505002037 73 90 0.0 0.0 0.00 0.00 0.00 44 1015.3
20260505001537 73 90 0.0 0.0 0.00 0.00 0.00 41 1015.2
20260505001017 74 90 0.0 0.0 0.00 0.00 0.00 40 1015.2
20260505000517 75 90 0.0 0.0 0.00 0.00 0.00 39 1015.3
20260505000017 76 90 0.0 1.0 0.00 0.00 0.00 39 1015.3
20260504235517 76 90 0.0 0.0 0.00 0.00 0.00 39 1015.3
20260504235017 77 90 0.0 0.0 0.00 0.00 0.00 38 1015.3
20260504234537 77 90 0.0 0.0 0.00 0.00 0.00 39 1015.3
20260504234036 77 90 0.0 0.0 0.00 0.00 0.00 39 1015.3
20260504233537 77 90 0.0 1.0 0.00 0.00 0.00 37 1015.3
20260504233016 77 90 0.0 0.0 0.00 0.00 0.00 37 1015.3
20260504232517 78 90 1.0 5.0 0.00 0.00 0.00 36 1015.4
20260504232037 79 75 0.0 0.0 0.00 0.00 0.00 35 1015.4
20260504231537 79 75 0.0 0.0 0.00 0.00 0.00 35 1015.3
20260504231017 79 68 0.0 1.0 0.00 0.00 0.00 35 1015.3
20260504230517 79 68 0.0 1.0 0.00 0.00 0.00 33 1015.3
20260504230016 79 203 0.0 2.0 0.00 0.00 0.00 32 1015.3
20260504225516 80 203 0.0 2.0 0.00 0.00 0.00 30 1015.2
20260504225016 80 203 0.0 2.0 0.00 0.00 0.00 29 1015.2
20260504224516 80 203 1.0 3.0 0.00 0.00 0.00 30 1015.1
20260504224016 80 158 0.0 1.0 0.00 0.00 0.00 33 1015.1
20260504223516 80 158 0.0 2.0 0.00 0.00 0.00 32 1015.2
20260504223016 80 90 1.0 5.0 0.00 0.00 0.00 29 1015.2
20260504222536 80 68 1.0 3.0 0.00 0.00 0.00 30 1015.3
20260504222016 80 90 1.0 4.0 0.00 0.00 0.00 30 1015.3
20260504221516 80 68 1.0 4.0 0.00 0.00 0.00 31 1015.3
20260504221036 81 293 0.0 3.0 0.00 0.00 0.00 32 1015.3
20260504220516 81 68 0.0 3.0 0.00 0.00 0.00 33 1015.4
20260504220016 81 135 0.0 2.0 0.00 0.00 0.00 34 1015.4
20260504215536 81 135 0.0 3.0 0.00 0.00 0.00 31 1015.3
20260504215016 81 68 0.0 3.0 0.00 0.00 0.00 30 1015.2
20260504214516 81 90 0.0 1.0 0.00 0.00 0.00 32 1015.3
20260504214016 81 90 1.0 6.0 0.00 0.00 0.00 31 1015.3
20260504213516 81 113 1.0 5.0 0.00 0.00 0.00 33 1015.3
20260504213016 81 180 1.0 3.0 0.00 0.00 0.00 31 1015.2
20260504212516 81 180 1.0 5.0 0.00 0.00 0.00 32 1015.3
20260504212016 81 45 0.0 1.0 0.00 0.00 0.00 27 1015.2
20260504211537 81 203 0.0 3.0 0.00 0.00 0.00 28 1015.3
20260504211016 80 94 0.0 0.0 0.00 0.00 0.00 33 1015.4
20260504210536 80 113 0.0 3.0 0.00 0.00 0.00 30 1015.3
20260504210016 80 113 0.0 1.0 0.00 0.00 0.00 31 1015.3
20260504205517 80 248 0.0 2.0 0.00 0.00 0.00 30 1015.3
20260504205036 80 248 0.0 2.0 0.00 0.00 0.00 30 1015.3
20260504204516 80 203 1.0 3.0 0.00 0.00 0.00 30 1015.3
20260504204016 80 248 0.0 3.0 0.00 0.00 0.00 30 1015.4
20260504203537 80 248 0.0 2.0 0.00 0.00 0.00 30 1015.5
20260504203037 80 203 0.0 1.0 0.00 0.00 0.00 29 1015.5
20260504202516 80 293 1.0 3.0 0.00 0.00 0.00 30 1015.6
20260504202016 80 135 1.0 3.0 0.00 0.00 0.00 30 1015.6
20260504201516 80 113 1.0 3.0 0.00 0.00 0.00 31 1015.7
20260504201016 80 113 0.0 2.0 0.00 0.00 0.00 32 1015.8
20260504200516 80 113 1.0 2.0 0.00 0.00 0.00 30 1015.8
20260504200016 80 203 0.0 2.0 0.00 0.00 0.00 30 1015.9
20260504195516 79 113 1.0 4.0 0.00 0.00 0.00 32 1015.9
20260504195016 79 90 2.0 9.0 0.00 0.00 0.00 31 1016.0
20260504194516 79 90 1.0 5.0 0.00 0.00 0.00 30 1016.1
20260504194016 79 113 1.0 3.0 0.00 0.00 0.00 33 1016.2
20260504193518 79 90 1.0 6.0 0.00 0.00 0.00 34 1016.3
20260504193017 79 338 2.0 4.0 0.00 0.00 0.00 33 1016.4
20260504192516 78 90 2.0 6.0 0.00 0.00 0.00 33 1016.5
20260504192016 78 90 1.0 3.0 0.00 0.00 0.00 35 1016.5
20260504191536 78 0 2.0 6.0 0.00 0.00 0.00 34 1016.5
20260504191016 78 113 1.0 6.0 0.00 0.00 0.00 32 1016.6
20260504190516 78 90 1.0 5.0 0.00 0.00 0.00 34 1016.7
20260504190016 77 135 1.0 3.0 0.00 0.00 0.00 34 1016.8
20260504185536 77 113 1.0 3.0 0.00 0.00 0.00 33 1016.9
20260504185019 77 113 1.0 3.0 0.00 0.00 0.00 31 1017.0
20260504184516 77 90 0.0 1.0 0.00 0.00 0.00 30 1017.1
20260504184016 77 90 0.0 3.0 0.00 0.00 0.00 31 1017.1
20260504183536 77 90 1.0 6.0 0.00 0.00 0.00 36 1017.2
20260504183036 76 203 0.0 2.0 0.00 0.00 0.00 34 1017.2
20260504182516 76 180 1.0 2.0 0.00 0.00 0.00 34 1017.3
20260504182016 76 203 1.0 2.0 0.00 0.00 0.00 36 1017.3
20260504181516 76 180 0.0 3.0 0.00 0.00 0.00 37 1017.3
20260504181016 76 203 0.0 2.0 0.00 0.00 0.00 36 1017.3
20260504180516 76 113 1.0 3.0 0.00 0.00 0.00 38 1017.3
20260504180016 76 180 1.0 5.0 0.00 0.00 0.00 36 1017.4
20260504175516 76 225 0.0 3.0 0.00 0.00 0.00 38 1017.4
20260504175016 75 203 1.0 2.0 0.00 0.00 0.00 39 1017.5
20260504174517 75 45 0.0 2.0 0.00 0.00 0.00 39 1017.5
20260504174016 75 90 0.0 5.0 0.00 0.00 0.00 38 1017.7
20260504173516 75 113 1.0 4.0 0.00 0.00 0.00 37 1017.7
20260504173015 75 180 0.0 2.0 0.00 0.00 0.00 38 1017.7
20260504172538 75 113 1.0 4.0 0.00 0.00 0.00 40 1017.8
20260504172017 74 254 0.0 0.0 0.00 0.00 0.00 38 1017.8
20260504171537 75 90 1.0 5.0 0.00 0.00 0.00 37 1017.8
20260504171017 75 135 0.0 2.0 0.00 0.00 0.00 40 1017.9
20260504170538 75 315 1.0 4.0 0.00 0.00 0.00 39 1017.9
20260504151017 72 225 2.0 5.0 0.00 0.00 0.00 44 1019.3
20260504150517 71 270 1.0 4.0 0.00 0.00 0.00 42 1019.4
20260504150158 71 248 1.0 4.0 0.00 0.00 0.00 38 1019.5
20260504141019 69 248 1.0 4.0 0.00 0.00 0.00 64 1019.6
20260504140517 69 23 0.0 2.0 0.00 0.00 0.00 62 1019.5
20260504130517 57 248 1.0 2.0 0.00 0.00 0.00 80 1019.4
20260504110516 45 253 0.0 0.0 0.00 0.00 0.00 93 1018.6
20260504100536 46 248 0.0 2.0 0.00 0.00 0.00 93 1018.7
20260504081536 47 257 0.0 0.0 0.00 0.00 0.00 88 1018.7
20260504081016 47 257 0.0 0.0 0.00 0.00 0.00 88 1018.6
20260504080516 48 248 0.0 1.0 0.00 0.00 0.00 87 1018.6